Regional Weather Roundup
Issued by NWS

Home | Current Version | Previous Version | Text Only | Print | Product List | Glossary On
Versions: 1 2 3 4 5 6 7 8 9 10 11 12 13 14 15 16 17 18 19 20 21 22 23 24 25 26 27 28 29 30 31 32 33 34 35 36 37 38 39 40 41 42 43 44 45 46 47 48 49 50
000
ASUS45 KBOU 281607
RWRCO

WEATHER ROUNDUP FOR COLORADO
NATIONAL WEATHER SERVICE DENVER/BOULDER CO
1000 AM MDT MON JUL 28 2014

NOTE: "FAIR" INDICATES FEW OR NO CLOUDS BELOW 12000 FEET WITH NO
SIGNIFICANT WEATHER AND/OR OBSTRUCTIONS TO VISIBILITY.

COZ001>005-013-030-031-281700-
...NORTHWEST COLORADO...

CITY           SKY/WX    TMP DP  RH WIND       PRES   REMARKS
CRAIG          SUNNY     71  49  45 NE3       30.40F
HAYDEN         SUNNY     73  45  35 E5        30.42F
MEEKER         MOSUNNY   76  48  37 SE3       30.41F
MOUNT WERNER   NOT AVBL
STEAMBOAT SPGS SUNNY     70  50  49 CALM      30.44F
WALDEN         SUNNY     66  48  52 CALM      30.53F
$$

COZ006>008-011-281700-
...WEST CENTRAL VALLEYS...

CITY           SKY/WX    TMP DP  RH WIND       PRES   REMARKS
GRAND JUNCTION PTSUNNY   78  53  41 NW5       30.31F
MONTROSE       PTSUNNY   77  50  38 CALM      30.40S
EAGLE          MOSUNNY   70  48  46 CALM      30.46
RIFLE          MOSUNNY   77  49  37 VRB5      30.36F
DELTA          PTSUNNY   77  53  42 S3        30.36S
NUCLA          CLOUDY    72  52  49 CALM      30.45S
$$

COZ017>023-064>068-281700-
...SOUTHWEST COLORADO...

CITY           SKY/WX    TMP DP  RH WIND       PRES   REMARKS
DURANGO        MOSUNNY   69  55  60 SE10      30.47S
CORTEZ         MOSUNNY   71  56  58 CALM      30.42R
PAGOSA SPRINGS MOSUNNY   65  53  64 SW3       30.55S
TELLURIDE      CLOUDY    63  50  63 W5        30.61S
WOLF CREEK PAS NOT AVBL
$$

COZ009-010-012-014-032>034-037-058>063-281700-
...CENTRAL COLORADO...

CITY           SKY/WX    TMP DP  RH WIND       PRES   REMARKS
ASPEN          MOSUNNY   68  47  46 SE6       30.51F
BUENA VISTA    MOSUNNY   67  49  52 SE3       30.53F
COPPER MTN     SUNNY     59  43  55 W17G23    30.82S
BERTHOUD PASS  FAIR      50  36  57 CALM      30.87S
COTTONWOOD PAS MOSUNNY   64  52  63 SE3       30.66S
GUNNISON       PTSUNNY   64  48  55 MISG      30.55F
KREMMLING      SUNNY     70  45  40 CALM      30.51F
LEADVILLE      MOSUNNY   61  45  55 CALM      30.65S
MONARCH PASS   CLOUDY    50  45  81 SW12      30.91F
SALIDA           N/A    N/A N/A N/A MISG        N/A
SUNLIGHT       MOSUNNY   57  46  67 CALM      30.75S
WILKERSON PASS NOT AVBL
$$

COZ069>075-281700-
...SAN LUIS VALLEY/SANGRE DE CRISTO MOUNTAINS...

CITY           SKY/WX    TMP DP  RH WIND       PRES   REMARKS
ALAMOSA        CLOUDY    62  55  77 CALM      30.54S
LA VETA PASS   CLOUDY    54  48  82 SW8G22    30.69S
SAGUACHE       CLOUDY    61  54  77 CALM      30.56F
$$

COZ035-036-038>040-281700-
...NORTHERN COLORADO FRONT RANGE...

CITY           SKY/WX    TMP DP  RH WIND       PRES   REMARKS
DENVER INTL AP PTSUNNY   72  58  61 NW7       30.36S
DMNS CITY PARK   N/A     75  58  55 N3G10     30.37S
AURORA         PTSUNNY   71  59  67 VRB6      30.39S
FRONT RANGE AP NOT AVBL
ERIE MUNI ARPT SUNNY     72  61  67 NE7       30.35F
BOULDER MUN AP SUNNY     72  57  60 CALM      30.37S
CENTENNIAL     PTSUNNY   71  56  58 NW5       30.39S
BROOMFIELD     PTSUNNY   72  57  60 NW7       30.39S
FORT COLLINS   SUNNY     73  61  64 N8        30.35F
LONGMONT       SUNNY     76  61  58 N3        30.36F
$$

COZ041-046-047-076>085-087-088-281700-
...PIKES PEAK/PALMER DIVIDE AND SOUTHERN FOOTHILLS...

CITY           SKY/WX    TMP DP  RH WIND       PRES   REMARKS
COLO. SPRINGS  PTSUNNY   67  60  78 S7        30.44S
A. F. ACADEMY  MOSUNNY   65  59  80 S5        30.44F
ELLICOTT       PTSUNNY   68  60  75 S13       30.43R
FALCON         PTSUNNY   66  58  75 S7        30.48S
FORT CARSON    CLOUDY    65  60  85 E7        30.42R
LIMON          MOSUNNY   73  61  65 S15       30.39S
MONUMENT HILL  SUNNY     68  54  60 CALM      30.46S
TRINIDAD       CLOUDY    68  57  68 W8        30.41S
$$

COZ042>045-048>051-090-091-281700-
...NORTHEAST COLORADO...

CITY           SKY/WX    TMP DP  RH WIND       PRES   REMARKS
GREELEY ARPT   SUNNY     72  55  56 NE7       30.34F
AKRON          SUNNY     78  56  46 SE12G20   30.35S
BURLINGTON     PTSUNNY   72  57  59 S14       30.36S
WRAY             N/A     79  54  42 E9        30.33S
STERLING       PTSUNNY   81  61  50 S6        30.30F
HOLYOKE        SUNNY     77  55  47 SE14      30.34S
FORT MORGAN    MOSUNNY   78  56  45 S7        30.34S
$$

COZ086-089-092>099-281700-
...SOUTHEAST COLORADO...

CITY           SKY/WX    TMP DP  RH WIND       PRES   REMARKS
PUEBLO         PTSUNNY   70  65  84 E8        30.35S
LA JUNTA       CLOUDY    72  64  76 SE8       30.35R
LAMAR          CLOUDY    72  61  68 SE12      30.33R
SPRINGFIELD      N/A     66  61  84 S14       30.39S
$$


USA.gov is the U.S. government's official web portal to all federal, state and local government web resources and services.